Greenville Downtown, SC

10:48 PM EST on December 12, 2017 (GMT -0500)
Greenville Downtown

Weather History for KGMU - March, 2013

Change the Weather History Date:

Sunday, March 10, 2013

  Actual Average Record
Temperature  
Mean Temperature 56 °F -  
Max Temperature 66 °F 58 °F 77 °F (1997)
Min Temperature 45 °F 40 °F 28 °F (1998)
Degree Days  
Heating Degree Days 10    
Growing Degree Days 6 (Base 50)    
Moisture  
Dew Point 32 °F    
Average Humidity 42    
Maximum Humidity 60    
Minimum Humidity 25    
Precipitation  
Precipitation 0.00 in - - ()
Sea Level Pressure  
Sea Level Pressure 30.22 in    
Wind  
Wind Speed 2 mph (SE)    
Max Wind Speed 8 mph    
Max Gust Speed -    
Visibility 10 miles    
Events      
Averages and records for this station are not official NWS values.
T = Trace of Precipitation, MM = Missing Value Source: NWS Daily Summary

Daily Weather History Graph

Daily Weather History Graph

Search for Another Location

Airport or City:

Trip Planner

Search our weather history database for the weather conditions in past years. The results will help you decide how hot, cold, wet, or windy it might be!

Date:

Astronomy

Mar. 10, 2013 Rise Set
Actual Time 7:46 AM EDT 7:33 PM EDT
Civil Twilight 7:21 AM EDT 7:58 PM EDT
Nautical Twilight 6:52 AM EDT 8:27 PM EDT
Astronomical Twilight 6:22 AM EDT 8:57 PM EDT
Moon 6:44 AM EDT (3/10) 6:40 PM EDT (3/10)
Length of Visible Light 12h 37m
Length of Day
11h 46m
Waning Crescent, 2% of the Moon is Illuminated
Mar 10
Waning Crescent
Mar 11
New
Mar 19
First Quarter
Mar 27
Full
Apr 3
Last Quarter

Hourly Weather History & Observations

Time (EDT) Temp. Dew Point Humidity Pressure Visibility Wind Dir Wind Speed Gust Speed Precip Events Conditions
12:53 AM 46.0 °F 30.9 °F 56% 30.26 in 10.0 mi Calm Calm - N/A   Clear
1:53 AM 46.0 °F 30.0 °F 54% 30.25 in 10.0 mi Calm Calm - N/A   Clear
3:53 AM 46.0 °F 28.9 °F 51% 30.24 in 10.0 mi Calm Calm - N/A   Clear
4:53 AM 45.0 °F 30.9 °F 58% 30.23 in 10.0 mi Calm Calm - N/A   Clear
5:53 AM 45.0 °F 32.0 °F 60% 30.23 in 10.0 mi Calm Calm - N/A   Clear
6:53 AM 45.0 °F 30.9 °F 58% 30.24 in 10.0 mi Calm Calm - N/A   Clear
8:53 AM 48.0 °F 30.9 °F 52% 30.28 in 10.0 mi Calm Calm - N/A   Clear
9:53 AM 51.1 °F 30.9 °F 46% 30.30 in 10.0 mi Calm Calm - N/A   Partly Cloudy
10:53 AM 55.9 °F 30.9 °F 39% 30.29 in 10.0 mi Variable 4.6 mph - N/A   Clear
11:53 AM 57.9 °F 30.9 °F 36% 30.27 in 10.0 mi South 3.5 mph - N/A   Clear
12:53 PM 62.1 °F 32.0 °F 32% 30.25 in 10.0 mi Variable 5.8 mph - N/A   Clear
1:53 PM 66.0 °F 30.9 °F 27% 30.23 in 10.0 mi South 8.1 mph - N/A   Clear
2:53 PM 66.9 °F 30.0 °F 25% 30.19 in 10.0 mi SE 8.1 mph - N/A   Clear
3:53 PM 64.9 °F 32.0 °F 29% 30.19 in 10.0 mi Variable 4.6 mph - N/A   Clear
4:53 PM 66.0 °F 32.0 °F 28% 30.17 in 10.0 mi SE 5.8 mph - N/A   Clear
5:53 PM 64.9 °F 30.9 °F 28% 30.16 in 10.0 mi SE 8.1 mph - N/A   Clear
6:53 PM 64.0 °F 32.0 °F 30% 30.16 in 10.0 mi SSE 4.6 mph - N/A   Clear
7:53 PM 62.1 °F 33.1 °F 34% 30.17 in 10.0 mi ESE 3.5 mph - N/A   Clear
8:53 PM 60.1 °F 34.0 °F 38% 30.17 in 10.0 mi East 5.8 mph - N/A   Clear
9:53 PM 59.0 °F 34.0 °F 39% 30.18 in 10.0 mi East 5.8 mph - N/A   Clear
10:53 PM 57.0 °F 35.1 °F 44% 30.18 in 10.0 mi ESE 6.9 mph - N/A   Clear
11:53 PM 55.9 °F 34.0 °F 44% 30.17 in 10.0 mi ESE 8.1 mph - N/A   Clear
12:53 AM 54.0 °F 36.0 °F 51% 30.16 in 10.0 mi SE 5.8 mph - N/A   Clear